Year,Month,Day,Hour,Minute,Value (Times are PST for temperature in C)
2007,06,03,00,00,16.90
2007,06,03,00,01,16.80
2007,06,03,00,02,16.80
2007,06,03,00,03,16.80
2007,06,03,00,04,16.80
2007,06,03,00,05,16.70
2007,06,03,00,06,16.70
2007,06,03,00,07,16.70
2007,06,03,00,08,16.70
2007,06,03,00,09,16.70
2007,06,03,00,10,16.70
2007,06,03,00,11,16.60
2007,06,03,00,12,16.60
2007,06,03,00,13,16.60
2007,06,03,00,14,16.50
2007,06,03,00,15,16.40
2007,06,03,00,16,16.40
2007,06,03,00,17,16.40
2007,06,03,00,18,16.40
2007,06,03,00,19,16.40
2007,06,03,00,20,16.40
2007,06,03,00,21,16.40
2007,06,03,00,22,16.30
2007,06,03,00,23,16.30
2007,06,03,00,24,16.30
2007,06,03,00,25,16.20
2007,06,03,00,26,16.20
2007,06,03,00,27,16.20
2007,06,03,00,28,16.20
2007,06,03,00,29,16.10
2007,06,03,00,30,16.10
2007,06,03,00,31,16.10
2007,06,03,00,32,16.10
2007,06,03,00,33,16.10
2007,06,03,00,34,16.10
2007,06,03,00,35,16.10
2007,06,03,00,36,16.10
2007,06,03,00,37,16.10
2007,06,03,00,38,16.10
2007,06,03,00,39,16.10
2007,06,03,00,40,16.10
2007,06,03,00,41,16.10
2007,06,03,00,42,16.00
2007,06,03,00,43,15.90
2007,06,03,00,44,15.90
2007,06,03,00,45,15.90
2007,06,03,00,46,15.90
2007,06,03,00,47,15.90
2007,06,03,00,48,15.90
2007,06,03,00,49,15.80
2007,06,03,00,50,15.80
2007,06,03,00,51,15.80
2007,06,03,00,52,15.80
2007,06,03,00,53,15.80
2007,06,03,00,54,15.80
2007,06,03,00,55,15.70
2007,06,03,00,56,15.60
2007,06,03,00,57,15.60
2007,06,03,00,58,15.60
2007,06,03,00,59,15.50
2007,06,03,01,00,15.50
2007,06,03,01,01,15.50
2007,06,03,01,02,15.50
2007,06,03,01,03,15.50
2007,06,03,01,04,15.40
2007,06,03,01,05,15.40
2007,06,03,01,06,15.40
2007,06,03,01,07,15.40
2007,06,03,01,08,15.40
2007,06,03,01,09,15.40
2007,06,03,01,10,15.30
2007,06,03,01,11,15.30
2007,06,03,01,12,15.30
2007,06,03,01,13,15.30
2007,06,03,01,14,15.30
2007,06,03,01,15,15.30
2007,06,03,01,16,15.30
2007,06,03,01,17,15.30
2007,06,03,01,18,15.30
2007,06,03,01,19,15.30
2007,06,03,01,20,15.30
2007,06,03,01,21,15.30
2007,06,03,01,22,15.30
2007,06,03,01,23,15.30
2007,06,03,01,24,15.30
2007,06,03,01,25,15.30
2007,06,03,01,26,15.30
2007,06,03,01,27,15.30
2007,06,03,01,28,15.30
2007,06,03,01,29,15.30
2007,06,03,01,30,15.30
2007,06,03,01,31,15.30
2007,06,03,01,32,15.20
2007,06,03,01,33,15.30
2007,06,03,01,34,15.20
2007,06,03,01,35,15.20
2007,06,03,01,36,15.20
2007,06,03,01,37,15.20
2007,06,03,01,38,15.20
2007,06,03,01,39,15.20
2007,06,03,01,40,15.20
2007,06,03,01,41,15.20
2007,06,03,01,42,15.10
2007,06,03,01,43,15.10
2007,06,03,01,44,15.10
2007,06,03,01,45,15.10
2007,06,03,01,46,15.10
2007,06,03,01,47,15.10
2007,06,03,01,48,15.10
2007,06,03,01,49,15.10
2007,06,03,01,50,15.00
2007,06,03,01,51,15.00
2007,06,03,01,52,15.00
2007,06,03,01,53,15.00
2007,06,03,01,54,14.90
2007,06,03,01,55,14.90
2007,06,03,01,56,14.90
2007,06,03,01,57,14.90
2007,06,03,01,58,14.90
2007,06,03,01,59,14.80
2007,06,03,02,00,14.80
2007,06,03,02,01,14.80
2007,06,03,02,02,14.80
2007,06,03,02,03,14.80
2007,06,03,02,04,14.70
2007,06,03,02,05,14.70
2007,06,03,02,06,14.70
2007,06,03,02,07,14.60
2007,06,03,02,08,14.60
2007,06,03,02,09,14.60
2007,06,03,02,10,14.60
2007,06,03,02,11,14.60
2007,06,03,02,12,14.60
2007,06,03,02,13,14.50
2007,06,03,02,14,14.50
2007,06,03,02,15,14.50
2007,06,03,02,16,14.50
2007,06,03,02,17,14.50
2007,06,03,02,18,14.50
2007,06,03,02,19,14.50
2007,06,03,02,20,14.50
2007,06,03,02,21,14.50
2007,06,03,02,22,14.50
2007,06,03,02,23,14.50
2007,06,03,02,24,14.50
2007,06,03,02,25,14.50
2007,06,03,02,26,14.50
2007,06,03,02,27,14.40
2007,06,03,02,28,14.40
2007,06,03,02,29,14.40
2007,06,03,02,30,14.30
2007,06,03,02,31,14.30
2007,06,03,02,32,14.20
2007,06,03,02,33,14.20
2007,06,03,02,34,14.20
2007,06,03,02,35,14.20
2007,06,03,02,36,14.20
2007,06,03,02,37,14.20
2007,06,03,02,38,14.20
2007,06,03,02,39,14.20
2007,06,03,02,40,14.20
2007,06,03,02,41,14.20
2007,06,03,02,42,14.20
2007,06,03,02,43,14.20
2007,06,03,02,44,14.20
2007,06,03,02,45,14.10
2007,06,03,02,46,14.10
2007,06,03,02,47,14.10
2007,06,03,02,48,14.10
2007,06,03,02,49,14.10
2007,06,03,02,50,14.10
2007,06,03,02,51,14.10
2007,06,03,02,52,14.10
2007,06,03,02,53,14.00
2007,06,03,02,54,14.00
2007,06,03,02,55,14.00
2007,06,03,02,56,14.00
2007,06,03,02,57,14.00
2007,06,03,02,58,14.00
2007,06,03,02,59,13.90
2007,06,03,03,00,13.90
2007,06,03,03,01,13.90
2007,06,03,03,02,13.90
2007,06,03,03,03,13.90
2007,06,03,03,04,13.90
2007,06,03,03,05,13.90
2007,06,03,03,06,13.80
2007,06,03,03,07,13.80
2007,06,03,03,08,13.80
2007,06,03,03,09,13.80
2007,06,03,03,10,13.80
2007,06,03,03,11,13.80
2007,06,03,03,12,13.80
2007,06,03,03,13,13.70
2007,06,03,03,14,13.70
2007,06,03,03,15,13.70
2007,06,03,03,16,13.70
2007,06,03,03,17,13.70
2007,06,03,03,18,13.70
2007,06,03,03,19,13.70
2007,06,03,03,20,13.70
2007,06,03,03,21,13.70
2007,06,03,03,22,13.70
2007,06,03,03,23,13.70
2007,06,03,03,24,13.70
2007,06,03,03,25,13.70
2007,06,03,03,26,13.70
2007,06,03,03,27,13.70
2007,06,03,03,28,13.70
2007,06,03,03,29,13.70
2007,06,03,03,30,13.70
2007,06,03,03,31,13.70
2007,06,03,03,32,13.70
2007,06,03,03,33,13.70
2007,06,03,03,34,13.70
2007,06,03,03,35,13.70
2007,06,03,03,36,13.70
2007,06,03,03,37,13.70
2007,06,03,03,38,13.70
2007,06,03,03,39,13.70
2007,06,03,03,40,13.60
2007,06,03,03,41,13.60
2007,06,03,03,42,13.60
2007,06,03,03,43,13.60
2007,06,03,03,44,13.60
2007,06,03,03,45,13.60
2007,06,03,03,46,13.50
2007,06,03,03,47,13.50
2007,06,03,03,48,13.50
2007,06,03,03,49,13.50
2007,06,03,03,50,13.50
2007,06,03,03,51,13.50
2007,06,03,03,52,13.50
2007,06,03,03,53,13.50
2007,06,03,03,54,13.50
2007,06,03,03,55,13.50
2007,06,03,03,56,13.50
2007,06,03,03,57,13.50
2007,06,03,03,58,13.40
2007,06,03,03,59,13.40
2007,06,03,04,00,13.40
2007,06,03,04,01,13.50
2007,06,03,04,02,13.50
2007,06,03,04,03,13.40
2007,06,03,04,04,13.40
2007,06,03,04,05,13.40
2007,06,03,04,06,13.40
2007,06,03,04,07,13.40
2007,06,03,04,08,13.40
2007,06,03,04,09,13.40
2007,06,03,04,10,13.40
2007,06,03,04,11,13.40
2007,06,03,04,12,13.40
2007,06,03,04,13,13.40
2007,06,03,04,14,13.40
2007,06,03,04,15,13.40
2007,06,03,04,16,13.40
2007,06,03,04,17,13.40
2007,06,03,04,18,13.40
2007,06,03,04,19,13.40
2007,06,03,04,20,13.40
2007,06,03,04,21,13.40
2007,06,03,04,22,13.40
2007,06,03,04,23,13.40
2007,06,03,04,24,13.40
2007,06,03,04,25,13.40
2007,06,03,04,26,13.40
2007,06,03,04,27,13.40
2007,06,03,04,28,13.50
2007,06,03,04,29,13.50
2007,06,03,04,30,13.50
2007,06,03,04,31,13.50
2007,06,03,04,32,13.50
2007,06,03,04,33,13.50
2007,06,03,04,34,13.60
2007,06,03,04,35,13.60
2007,06,03,04,36,13.60
2007,06,03,04,37,13.60
2007,06,03,04,38,13.60
2007,06,03,04,39,13.60
2007,06,03,04,40,13.60
2007,06,03,04,41,13.60
2007,06,03,04,42,13.60
2007,06,03,04,43,13.60
2007,06,03,04,44,13.50
2007,06,03,04,45,13.50
2007,06,03,04,46,13.50
2007,06,03,04,47,13.50
2007,06,03,04,48,13.50
2007,06,03,04,49,13.50
2007,06,03,04,50,13.40
2007,06,03,04,51,13.40
2007,06,03,04,52,13.40
2007,06,03,04,53,13.40
2007,06,03,04,54,13.40
2007,06,03,04,55,13.40
2007,06,03,04,56,13.30
2007,06,03,04,57,13.30
2007,06,03,04,58,13.30
2007,06,03,04,59,13.30
2007,06,03,05,00,13.30
2007,06,03,05,01,13.30
2007,06,03,05,02,13.30
2007,06,03,05,03,13.30
2007,06,03,05,04,13.30
2007,06,03,05,05,13.30
2007,06,03,05,06,13.30
2007,06,03,05,07,13.30
2007,06,03,05,08,13.30
2007,06,03,05,09,13.20
2007,06,03,05,10,13.20
2007,06,03,05,11,13.20
2007,06,03,05,12,13.20
2007,06,03,05,13,13.20
2007,06,03,05,14,13.20
2007,06,03,05,15,13.20
2007,06,03,05,16,13.20
2007,06,03,05,17,13.20
2007,06,03,05,18,13.20
2007,06,03,05,19,13.20
2007,06,03,05,20,13.20
2007,06,03,05,21,13.20
2007,06,03,05,22,13.20
2007,06,03,05,23,13.20
2007,06,03,05,24,13.20
2007,06,03,05,25,13.20
2007,06,03,05,26,13.20
2007,06,03,05,27,13.20
2007,06,03,05,28,13.10
2007,06,03,05,29,13.10
2007,06,03,05,30,13.10
2007,06,03,05,31,13.10
2007,06,03,05,32,13.10
2007,06,03,05,33,13.00
2007,06,03,05,34,13.00
2007,06,03,05,35,13.00
2007,06,03,05,36,13.00
2007,06,03,05,37,13.00
2007,06,03,05,38,13.00
2007,06,03,05,39,13.00
2007,06,03,05,40,13.00
2007,06,03,05,41,13.00
2007,06,03,05,42,13.00
2007,06,03,05,43,13.00
2007,06,03,05,44,13.00
2007,06,03,05,45,13.00
2007,06,03,05,46,13.00
2007,06,03,05,47,13.00
2007,06,03,05,48,13.00
2007,06,03,05,49,13.00
2007,06,03,05,50,13.00
2007,06,03,05,51,13.00
2007,06,03,05,52,13.00
2007,06,03,05,53,12.90
2007,06,03,05,54,12.90
2007,06,03,05,55,12.90
2007,06,03,05,56,12.90
2007,06,03,05,57,12.90
2007,06,03,05,58,12.90
2007,06,03,05,59,12.90
2007,06,03,06,00,12.90
2007,06,03,06,01,12.90
2007,06,03,06,02,12.90
2007,06,03,06,03,12.90
2007,06,03,06,04,12.90
2007,06,03,06,05,12.90
2007,06,03,06,06,12.90
2007,06,03,06,07,12.90
2007,06,03,06,08,12.90
2007,06,03,06,09,12.90
2007,06,03,06,10,12.90
2007,06,03,06,11,12.90
2007,06,03,06,12,12.90
2007,06,03,06,13,12.90
2007,06,03,06,14,12.90
2007,06,03,06,15,12.90
2007,06,03,06,16,12.90
2007,06,03,06,17,13.00
2007,06,03,06,18,13.00
2007,06,03,06,19,13.00
2007,06,03,06,20,12.90
2007,06,03,06,21,12.90
2007,06,03,06,22,12.90
2007,06,03,06,23,13.00
2007,06,03,06,24,13.00
2007,06,03,06,25,13.00
2007,06,03,06,26,13.00
2007,06,03,06,27,13.00
2007,06,03,06,28,13.00
2007,06,03,06,29,13.00
2007,06,03,06,30,13.00
2007,06,03,06,31,13.00
2007,06,03,06,32,13.00
2007,06,03,06,33,13.00
2007,06,03,06,34,13.10
2007,06,03,06,35,13.10
2007,06,03,06,36,13.10
2007,06,03,06,37,13.10
2007,06,03,06,38,13.10
2007,06,03,06,39,13.10
2007,06,03,06,40,13.10
2007,06,03,06,41,13.10
2007,06,03,06,42,13.10
2007,06,03,06,43,13.10
2007,06,03,06,44,13.10
2007,06,03,06,45,13.10
2007,06,03,06,46,13.20
2007,06,03,06,47,13.20
2007,06,03,06,48,13.20
2007,06,03,06,49,13.20
2007,06,03,06,50,13.20
2007,06,03,06,51,13.20
2007,06,03,06,52,13.20
2007,06,03,06,53,13.30
2007,06,03,06,54,13.30
2007,06,03,06,55,13.30
2007,06,03,06,56,13.30
2007,06,03,06,57,13.30
2007,06,03,06,58,13.30
2007,06,03,06,59,13.30
2007,06,03,07,00,13.30
2007,06,03,07,01,13.30
2007,06,03,07,02,13.30
2007,06,03,07,03,13.30
2007,06,03,07,04,13.40
2007,06,03,07,05,13.40
2007,06,03,07,06,13.40
2007,06,03,07,07,13.40
2007,06,03,07,08,13.40
2007,06,03,07,09,13.40
2007,06,03,07,10,13.50
2007,06,03,07,11,13.50
2007,06,03,07,12,13.50
2007,06,03,07,13,13.50
2007,06,03,07,14,13.60
2007,06,03,07,15,13.60
2007,06,03,07,16,13.60
2007,06,03,07,17,13.60
2007,06,03,07,18,13.60
2007,06,03,07,19,13.60
2007,06,03,07,20,13.70
2007,06,03,07,21,13.70
2007,06,03,07,22,13.70
2007,06,03,07,23,13.70
2007,06,03,07,24,13.70
2007,06,03,07,25,13.70
2007,06,03,07,26,13.70
2007,06,03,07,27,13.70
2007,06,03,07,28,13.80
2007,06,03,07,29,13.80
2007,06,03,07,30,13.80
2007,06,03,07,31,13.90
2007,06,03,07,32,13.90
2007,06,03,07,33,13.90
2007,06,03,07,34,14.00
2007,06,03,07,35,14.00
2007,06,03,07,36,14.10
2007,06,03,07,37,14.10
2007,06,03,07,38,14.20
2007,06,03,07,39,14.20
2007,06,03,07,40,14.20
2007,06,03,07,41,14.30
2007,06,03,07,42,14.40
2007,06,03,07,43,14.40
2007,06,03,07,44,14.50
2007,06,03,07,45,14.50
2007,06,03,07,46,14.50
2007,06,03,07,47,14.60
2007,06,03,07,48,14.60
2007,06,03,07,49,14.70
2007,06,03,07,50,14.70
2007,06,03,07,51,14.80
2007,06,03,07,52,14.80
2007,06,03,07,53,14.90
2007,06,03,07,54,15.00
2007,06,03,07,55,15.00
2007,06,03,07,56,15.10
2007,06,03,07,57,15.20
2007,06,03,07,58,15.20
2007,06,03,07,59,15.30
2007,06,03,08,00,15.30
2007,06,03,08,01,15.40
2007,06,03,08,02,15.40
2007,06,03,08,03,15.50
2007,06,03,08,04,15.50
2007,06,03,08,05,15.60
2007,06,03,08,06,15.70
2007,06,03,08,07,15.70
2007,06,03,08,08,15.80
2007,06,03,08,09,15.80
2007,06,03,08,10,15.80
2007,06,03,08,11,15.90
2007,06,03,08,12,15.90
2007,06,03,08,13,16.10
2007,06,03,08,14,16.10
2007,06,03,08,15,16.20
2007,06,03,08,16,16.30
2007,06,03,08,17,16.30
2007,06,03,08,18,16.40
2007,06,03,08,19,16.50
2007,06,03,08,20,16.60
2007,06,03,08,21,16.70
2007,06,03,08,22,16.80
2007,06,03,08,23,16.90
2007,06,03,08,24,17.00
2007,06,03,08,25,17.00
2007,06,03,08,26,17.20
2007,06,03,08,27,17.30
2007,06,03,08,28,17.30
2007,06,03,08,29,17.40
2007,06,03,08,30,17.50
2007,06,03,08,31,17.50
2007,06,03,08,32,17.60
2007,06,03,08,33,17.60
2007,06,03,08,34,17.70
2007,06,03,08,35,17.70
2007,06,03,08,36,17.80
2007,06,03,08,37,17.80
2007,06,03,08,38,17.90
2007,06,03,08,39,17.90
2007,06,03,08,40,17.90
2007,06,03,08,41,18.10
2007,06,03,08,42,18.10
2007,06,03,08,43,18.10
2007,06,03,08,44,18.10
2007,06,03,08,45,18.20
2007,06,03,08,46,18.20
2007,06,03,08,47,18.20
2007,06,03,08,48,18.30
2007,06,03,08,49,18.30
2007,06,03,08,50,18.30
2007,06,03,08,51,18.40
2007,06,03,08,52,18.40
2007,06,03,08,53,18.40
2007,06,03,08,54,18.50
2007,06,03,08,55,18.50
2007,06,03,08,56,18.50
2007,06,03,08,57,18.60
2007,06,03,08,58,18.60
2007,06,03,08,59,18.70
2007,06,03,09,00,18.70
2007,06,03,09,01,18.70
2007,06,03,09,02,18.80
2007,06,03,09,03,18.80
2007,06,03,09,04,18.80
2007,06,03,09,05,18.90
2007,06,03,09,06,18.90
2007,06,03,09,07,18.90
2007,06,03,09,08,18.90
2007,06,03,09,09,19.00
2007,06,03,09,10,19.10
2007,06,03,09,11,19.10
2007,06,03,09,12,19.10
2007,06,03,09,13,19.10
2007,06,03,09,14,19.10
2007,06,03,09,15,19.10
2007,06,03,09,16,19.10
2007,06,03,09,17,19.10
2007,06,03,09,18,19.10
2007,06,03,09,19,19.10
2007,06,03,09,20,19.10
2007,06,03,09,21,19.10
2007,06,03,09,22,19.10
2007,06,03,09,23,19.10
2007,06,03,09,24,19.10
2007,06,03,09,25,19.10
2007,06,03,09,26,19.10
2007,06,03,09,27,19.10
2007,06,03,09,28,19.20
2007,06,03,09,29,19.20
2007,06,03,09,30,19.20
2007,06,03,09,31,19.20
2007,06,03,09,32,19.30
2007,06,03,09,33,19.40
2007,06,03,09,34,19.40
2007,06,03,09,35,19.40
2007,06,03,09,36,19.50
2007,06,03,09,37,19.50
2007,06,03,09,38,19.60
2007,06,03,09,39,19.60
2007,06,03,09,40,19.70
2007,06,03,09,41,19.70
2007,06,03,09,42,19.70
2007,06,03,09,43,19.70
2007,06,03,09,44,19.80
2007,06,03,09,45,19.80
2007,06,03,09,46,19.80
2007,06,03,09,47,19.80
2007,06,03,09,48,19.80
2007,06,03,09,49,19.80
2007,06,03,09,50,19.90
2007,06,03,09,51,19.90
2007,06,03,09,52,19.90
2007,06,03,09,53,19.90
2007,06,03,09,54,19.90
2007,06,03,09,55,19.90
2007,06,03,09,56,20.00
2007,06,03,09,57,20.10
2007,06,03,09,58,20.10
2007,06,03,09,59,20.20
2007,06,03,10,00,20.20
2007,06,03,10,01,20.20
2007,06,03,10,02,20.20
2007,06,03,10,03,20.20
2007,06,03,10,04,20.30
2007,06,03,10,05,20.40
2007,06,03,10,06,20.40
2007,06,03,10,07,20.50
2007,06,03,10,08,20.50
2007,06,03,10,09,20.50
2007,06,03,10,10,20.50
2007,06,03,10,11,20.50
2007,06,03,10,12,20.60
2007,06,03,10,13,20.60
2007,06,03,10,14,20.60
2007,06,03,10,15,20.60
2007,06,03,10,16,20.60
2007,06,03,10,17,20.60
2007,06,03,10,18,20.60
2007,06,03,10,19,20.60
2007,06,03,10,20,20.70
2007,06,03,10,21,20.70
2007,06,03,10,22,20.70
2007,06,03,10,23,20.80
2007,06,03,10,24,20.80
2007,06,03,10,25,20.80
2007,06,03,10,26,20.80
2007,06,03,10,27,20.90
2007,06,03,10,28,20.90
2007,06,03,10,29,20.90
2007,06,03,10,30,20.90
2007,06,03,10,31,21.00
2007,06,03,10,32,21.00
2007,06,03,10,33,21.00
2007,06,03,10,34,21.00
2007,06,03,10,35,21.10
2007,06,03,10,36,21.10
2007,06,03,10,37,21.10
2007,06,03,10,38,21.20
2007,06,03,10,39,21.20
2007,06,03,10,40,21.20
2007,06,03,10,41,21.20
2007,06,03,10,42,21.30
2007,06,03,10,43,21.30
2007,06,03,10,44,21.30
2007,06,03,10,45,21.30
2007,06,03,10,46,21.30
2007,06,03,10,47,21.30
2007,06,03,10,48,21.30
2007,06,03,10,49,21.40
2007,06,03,10,50,21.40
2007,06,03,10,51,21.40
2007,06,03,10,52,21.40
2007,06,03,10,53,21.60
2007,06,03,10,54,21.60
2007,06,03,10,55,21.60
2007,06,03,10,56,21.60
2007,06,03,10,57,21.60
2007,06,03,10,58,21.60
2007,06,03,10,59,21.60
2007,06,03,11,00,21.60
2007,06,03,11,01,21.60
2007,06,03,11,02,21.60
2007,06,03,11,03,21.60
2007,06,03,11,04,21.60
2007,06,03,11,05,21.60
2007,06,03,11,06,21.60
2007,06,03,11,07,21.60
2007,06,03,11,08,21.60
2007,06,03,11,09,21.60
2007,06,03,11,10,21.60
2007,06,03,11,11,21.60
2007,06,03,11,12,21.60
2007,06,03,11,13,21.60
2007,06,03,11,14,21.60
2007,06,03,11,15,21.60
2007,06,03,11,16,21.60
2007,06,03,11,17,21.60
2007,06,03,11,18,21.60
2007,06,03,11,19,21.60
2007,06,03,11,20,21.60
2007,06,03,11,21,21.60
2007,06,03,11,22,21.60
2007,06,03,11,23,21.70
2007,06,03,11,24,21.70
2007,06,03,11,25,21.70
2007,06,03,11,26,21.70
2007,06,03,11,27,21.80
2007,06,03,11,28,21.80
2007,06,03,11,29,21.80
2007,06,03,11,30,21.90
2007,06,03,11,31,21.90
2007,06,03,11,32,21.90
2007,06,03,11,33,21.90
2007,06,03,11,34,22.00
2007,06,03,11,35,22.00
2007,06,03,11,36,21.90
2007,06,03,11,37,21.90
2007,06,03,11,38,21.90
2007,06,03,11,39,21.90
2007,06,03,11,40,22.00
2007,06,03,11,41,22.00
2007,06,03,11,42,22.00
2007,06,03,11,43,22.00
2007,06,03,11,44,22.00
2007,06,03,11,45,22.10
2007,06,03,11,46,22.10
2007,06,03,11,47,22.10
2007,06,03,11,48,22.10
2007,06,03,11,49,22.10
2007,06,03,11,50,22.20
2007,06,03,11,51,22.20
2007,06,03,11,52,22.20
2007,06,03,11,53,22.30
2007,06,03,11,54,22.30
2007,06,03,11,55,22.30
2007,06,03,11,56,22.30
2007,06,03,11,57,22.30
2007,06,03,11,58,22.30
2007,06,03,11,59,22.30
2007,06,03,12,00,22.30
2007,06,03,12,01,22.30
2007,06,03,12,02,22.30
2007,06,03,12,03,22.30
2007,06,03,12,04,22.30
2007,06,03,12,05,22.30
2007,06,03,12,06,22.40
2007,06,03,12,07,22.40
2007,06,03,12,08,22.40
2007,06,03,12,09,22.40
2007,06,03,12,10,22.40
2007,06,03,12,11,22.50
2007,06,03,12,12,22.50
2007,06,03,12,13,22.50
2007,06,03,12,14,22.60
2007,06,03,12,15,22.60
2007,06,03,12,16,22.60
2007,06,03,12,17,22.70
2007,06,03,12,18,22.70
2007,06,03,12,19,22.70
2007,06,03,12,20,22.70
2007,06,03,12,21,22.70
2007,06,03,12,22,22.70
2007,06,03,12,23,22.70
2007,06,03,12,24,22.70
2007,06,03,12,25,22.70
2007,06,03,12,26,22.70
2007,06,03,12,27,22.60
2007,06,03,12,28,22.60
2007,06,03,12,29,22.60
2007,06,03,12,30,22.60
2007,06,03,12,31,22.60
2007,06,03,12,32,22.50
2007,06,03,12,33,22.50
2007,06,03,12,34,22.50
2007,06,03,12,35,22.60
2007,06,03,12,36,22.70
2007,06,03,12,37,22.80
2007,06,03,12,38,22.90
2007,06,03,12,39,22.90
2007,06,03,12,40,22.90
2007,06,03,12,41,22.90
2007,06,03,12,42,22.90
2007,06,03,12,43,22.90
2007,06,03,12,44,22.90
2007,06,03,12,45,22.90
2007,06,03,12,46,22.90
2007,06,03,12,47,22.90
2007,06,03,12,48,22.90
2007,06,03,12,49,23.00
2007,06,03,12,50,23.10
2007,06,03,12,51,23.10
2007,06,03,12,52,23.20
2007,06,03,12,53,23.20
2007,06,03,12,54,23.30
2007,06,03,12,55,23.40
2007,06,03,12,56,23.50
2007,06,03,12,57,23.60
2007,06,03,12,58,23.70
2007,06,03,12,59,23.70
2007,06,03,13,00,23.70
2007,06,03,13,01,23.80
2007,06,03,13,02,23.80
2007,06,03,13,03,23.90
2007,06,03,13,04,24.00
2007,06,03,13,05,24.20
2007,06,03,13,06,24.40
2007,06,03,13,07,24.50
2007,06,03,13,08,24.60
2007,06,03,13,09,24.70
2007,06,03,13,10,24.70
2007,06,03,13,11,24.70
2007,06,03,13,12,24.60
2007,06,03,13,13,24.50
2007,06,03,13,14,24.50
2007,06,03,13,15,24.40
2007,06,03,13,16,24.60
2007,06,03,13,17,24.70
2007,06,03,13,18,24.70
2007,06,03,13,19,24.70
2007,06,03,13,20,24.70
2007,06,03,13,21,24.60
2007,06,03,13,22,24.50
2007,06,03,13,23,24.50
2007,06,03,13,24,24.50
2007,06,03,13,25,24.60
2007,06,03,13,26,24.60
2007,06,03,13,27,24.70
2007,06,03,13,28,24.70
2007,06,03,13,29,24.80
2007,06,03,13,30,24.90
2007,06,03,13,31,24.90
2007,06,03,13,32,24.90
2007,06,03,13,33,24.90
2007,06,03,13,34,25.00
2007,06,03,13,35,25.20
2007,06,03,13,36,25.30
2007,06,03,13,37,25.50
2007,06,03,13,38,25.70
2007,06,03,13,39,25.80
2007,06,03,13,40,25.90
2007,06,03,13,41,26.00
2007,06,03,13,42,26.10
2007,06,03,13,43,26.20
2007,06,03,13,44,26.30
2007,06,03,13,45,26.30
2007,06,03,13,46,26.30
2007,06,03,13,47,26.10
2007,06,03,13,48,25.90
2007,06,03,13,49,25.90
2007,06,03,13,50,25.90
2007,06,03,13,51,26.10
2007,06,03,13,52,26.20
2007,06,03,13,53,26.10
2007,06,03,13,54,26.20
2007,06,03,13,55,26.20
2007,06,03,13,56,26.20
2007,06,03,13,57,26.20
2007,06,03,13,58,26.20
2007,06,03,13,59,26.30
2007,06,03,14,00,26.40
2007,06,03,14,01,26.30
2007,06,03,14,02,26.40
2007,06,03,14,03,26.40
2007,06,03,14,04,26.40
2007,06,03,14,05,26.40
2007,06,03,14,06,26.40
2007,06,03,14,07,26.40
2007,06,03,14,08,26.40
2007,06,03,14,09,26.40
2007,06,03,14,10,26.40
2007,06,03,14,11,26.40
2007,06,03,14,12,26.20
2007,06,03,14,13,26.00
2007,06,03,14,14,25.90
2007,06,03,14,15,25.80
2007,06,03,14,16,25.70
2007,06,03,14,17,25.60
2007,06,03,14,18,25.60
2007,06,03,14,19,25.40
2007,06,03,14,20,25.40
2007,06,03,14,21,25.30
2007,06,03,14,22,25.20
2007,06,03,14,23,25.10
2007,06,03,14,24,25.00
2007,06,03,14,25,24.90
2007,06,03,14,26,24.80
2007,06,03,14,27,24.80
2007,06,03,14,28,24.70
2007,06,03,14,29,24.70
2007,06,03,14,30,24.60
2007,06,03,14,31,24.50
2007,06,03,14,32,24.40
2007,06,03,14,33,24.40
2007,06,03,14,34,24.30
2007,06,03,14,35,24.30
2007,06,03,14,36,24.30
2007,06,03,14,37,24.30
2007,06,03,14,38,24.30
2007,06,03,14,39,24.40
2007,06,03,14,40,24.40
2007,06,03,14,41,24.50
2007,06,03,14,42,24.50
2007,06,03,14,43,24.60
2007,06,03,14,44,24.60
2007,06,03,14,45,24.60
2007,06,03,14,46,24.60
2007,06,03,14,47,24.60
2007,06,03,14,48,24.60
2007,06,03,14,49,24.60
2007,06,03,14,50,24.60
2007,06,03,14,51,24.60
2007,06,03,14,52,24.60
2007,06,03,14,53,24.50
2007,06,03,14,54,24.50
2007,06,03,14,55,24.40
2007,06,03,14,56,24.40
2007,06,03,14,57,24.40
2007,06,03,14,58,24.40
2007,06,03,14,59,24.50
2007,06,03,15,00,24.50
2007,06,03,15,01,24.60
2007,06,03,15,02,24.60
2007,06,03,15,03,24.70
2007,06,03,15,04,24.80
2007,06,03,15,05,24.80
2007,06,03,15,06,24.90
2007,06,03,15,07,24.90
2007,06,03,15,08,24.90
2007,06,03,15,09,24.90
2007,06,03,15,10,24.90
2007,06,03,15,11,24.90
2007,06,03,15,12,24.90
2007,06,03,15,13,24.80
2007,06,03,15,14,24.80
2007,06,03,15,15,24.70
2007,06,03,15,16,24.70
2007,06,03,15,17,24.70
2007,06,03,15,18,24.60
2007,06,03,15,19,24.60
2007,06,03,15,20,24.60
2007,06,03,15,21,24.60
2007,06,03,15,22,24.50
2007,06,03,15,23,24.50
2007,06,03,15,24,24.50
2007,06,03,15,25,24.50
2007,06,03,15,26,24.50
2007,06,03,15,27,24.60
2007,06,03,15,28,24.60
2007,06,03,15,29,24.60
2007,06,03,15,30,24.60
2007,06,03,15,31,24.60
2007,06,03,15,32,24.60
2007,06,03,15,33,24.60
2007,06,03,15,34,24.60
2007,06,03,15,35,24.70
2007,06,03,15,36,24.70
2007,06,03,15,37,24.70
2007,06,03,15,38,24.80
2007,06,03,15,39,24.80
2007,06,03,15,40,24.80
2007,06,03,15,41,24.90
2007,06,03,15,42,24.90
2007,06,03,15,43,24.90
2007,06,03,15,44,25.00
2007,06,03,15,45,25.00
2007,06,03,15,46,25.00
2007,06,03,15,47,25.00
2007,06,03,15,48,25.10
2007,06,03,15,49,25.10
2007,06,03,15,50,25.10
2007,06,03,15,51,25.10
2007,06,03,15,52,25.10
2007,06,03,15,53,25.20
2007,06,03,15,54,25.20
2007,06,03,15,55,25.20
2007,06,03,15,56,25.20
2007,06,03,15,57,25.20
2007,06,03,15,58,25.30
2007,06,03,15,59,25.30
2007,06,03,16,00,25.30
2007,06,03,16,01,25.30
2007,06,03,16,02,25.30
2007,06,03,16,03,25.30
2007,06,03,16,04,25.30
2007,06,03,16,05,25.30
2007,06,03,16,06,25.30
2007,06,03,16,07,25.30
2007,06,03,16,08,25.40
2007,06,03,16,09,25.40
2007,06,03,16,10,25.40
2007,06,03,16,11,25.40
2007,06,03,16,12,25.40
2007,06,03,16,13,25.50
2007,06,03,16,14,25.50
2007,06,03,16,15,25.50
2007,06,03,16,16,25.60
2007,06,03,16,17,25.60
2007,06,03,16,18,25.60
2007,06,03,16,19,25.60
2007,06,03,16,20,25.70
2007,06,03,16,21,25.70
2007,06,03,16,22,25.80
2007,06,03,16,23,25.80
2007,06,03,16,24,25.90
2007,06,03,16,25,25.90
2007,06,03,16,26,26.00
2007,06,03,16,27,26.00
2007,06,03,16,28,26.00
2007,06,03,16,29,26.10
2007,06,03,16,30,26.20
2007,06,03,16,31,26.20
2007,06,03,16,32,26.20
2007,06,03,16,33,26.20
2007,06,03,16,34,26.30
2007,06,03,16,35,26.30
2007,06,03,16,36,26.30
2007,06,03,16,37,26.30
2007,06,03,16,38,26.30
2007,06,03,16,39,26.30
2007,06,03,16,40,26.30
2007,06,03,16,41,26.40
2007,06,03,16,42,26.40
2007,06,03,16,43,26.40
2007,06,03,16,44,26.40
2007,06,03,16,45,26.40
2007,06,03,16,46,26.50
2007,06,03,16,47,26.60
2007,06,03,16,48,26.60
2007,06,03,16,49,26.60
2007,06,03,16,50,26.60
2007,06,03,16,51,26.60
2007,06,03,16,52,26.60
2007,06,03,16,53,26.60
2007,06,03,16,54,26.60
2007,06,03,16,55,26.60
2007,06,03,16,56,26.60
2007,06,03,16,57,26.60
2007,06,03,16,58,26.60
2007,06,03,16,59,26.60
2007,06,03,17,00,26.60
2007,06,03,17,01,26.60
2007,06,03,17,02,26.60
2007,06,03,17,03,26.60
2007,06,03,17,04,26.50
2007,06,03,17,05,26.40
2007,06,03,17,06,26.40
2007,06,03,17,07,26.40
2007,06,03,17,08,26.40
2007,06,03,17,09,26.40
2007,06,03,17,10,26.40
2007,06,03,17,11,26.40
2007,06,03,17,12,26.40
2007,06,03,17,13,26.40
2007,06,03,17,14,26.40
2007,06,03,17,15,26.40
2007,06,03,17,16,26.40
2007,06,03,17,17,26.40
2007,06,03,17,18,26.40
2007,06,03,17,19,26.40